珠海一号 03B星 (ZHUHAI-1 03B)

导读

ZHUHAI-1 03B即珠海一号03B星,由中国于2019年9月19日发射,是珠海一号卫星星座的组成部分。珠海一号是由珠海欧比特宇航科技股份有限公司运管的商业遥感卫星星座,03组卫星多具备高光谱或光学成像能力,可服务于国土资源普查、环境监测、城市规划等领域,ZHUHAI-03B的入轨进一步丰富了星座的数据获取能力。

Basic Information
目录编号:
44536
目录名称:
ZHUHAI-1 03B
国际标识:
2019-060C
轨道中心:
EARTH
卫星名称:
珠海一号 03B星
卫星全名:
珠海一号 03B星 (ZHUHAI-1 03B)
卫星状态:
在轨 (已飞行2503 天)
发射日期:
2019-09-19 UTC
国别 :
中国 (CN)
星等 :
--
Orbit Information
数据来源 国际轨道数据 AOE轨道数据
星历时间 2026-07-27T22:10:22+0800
9小时前
查看轨道信息
2026-07-22T13:00:00+0800
5天前
查看轨道信息
半长轴 6776.49km 6777.538km
偏心率 0.0008966 0.0009028
轨道倾角 97.556° 97.557°
近地点辐角 162.258° 181.031°
升交点赤经 8.616° 2.924°
平近点角 197.899° 287.495°
近地点 392.277km 393.282km
远地点 404.429km 405.52km
周期 92.527分钟 92.548分钟
每日圈数 15.563083 15.559472
Detailed Information
平衡模式:
三轴稳定
覆盖范围:
全球
运营商:
珠海欧比特宇航科技股份有限公司
运营商所在国:
中国
制造商(研发单位):
珠海欧比特宇航科技股份有限公司
制造商所在国:
中国
使用方式:
暂无
Satellite Introduction
珠海一号(Zhuhai-1)卫星星座是由珠海欧比特宇航科技股份有限公司发射并运营的商业遥感微纳卫星星座,整个星座由34颗遥感卫星组成,分别是2颗视频试验卫星、10颗视频卫星、10颗高光谱卫星、2颗高分光学卫星、2颗SAR卫星和8颗红外卫星。该卫星仍在工作。
2D Orbit Map
3D Orbit Map
Orbit Altitude Analysis Chart
Orbit Inclination Analysis Chart
Orbit Comprehensive Analysis Chart
View Comprehensive Chart